Lake Hartwell Weather Center

Moon Phase Calendar



Lake Hartwell Water Level
Online Cameras

 


      

Current Conditions in Centerville
4/16/2024 1:58:02 PM

79°F
Feels Like 79
Clouds
Humidity
60%
Pressure
30.18"
Wind
1 mph (S)
Dew Point
64°F
UV Index
5/10 (Moderate)
Visibility
6 mi

Hourly Forecast

Date & Time Tue, Apr 16
1:00 PM
Tue, Apr 16
2:00 PM
Tue, Apr 16
3:00 PM
Tue, Apr 16
4:00 PM
Tue, Apr 16
5:00 PM
Tue, Apr 16
6:00 PM
Tue, Apr 16
7:00 PM
Tue, Apr 16
8:00 PM
Tue, Apr 16
9:00 PM
Tue, Apr 16
10:00 PM
Tue, Apr 16
11:00 PM
Wed, Apr 17
12:00 AM
Wed, Apr 17
1:00 AM
Wed, Apr 17
2:00 AM
Wed, Apr 17
3:00 AM
Wed, Apr 17
4:00 AM
Wed, Apr 17
5:00 AM
Wed, Apr 17
6:00 AM
Wed, Apr 17
7:00 AM
Wed, Apr 17
8:00 AM
Wed, Apr 17
9:00 AM
Wed, Apr 17
10:00 AM
Wed, Apr 17
11:00 AM
Wed, Apr 17
12:00 PM
Wed, Apr 17
1:00 PM
Wed, Apr 17
2:00 PM
Wed, Apr 17
3:00 PM
Wed, Apr 17
4:00 PM
Wed, Apr 17
5:00 PM
Wed, Apr 17
6:00 PM
Wed, Apr 17
7:00 PM
Wed, Apr 17
8:00 PM
Wed, Apr 17
9:00 PM
Wed, Apr 17
10:00 PM
Wed, Apr 17
11:00 PM
Thu, Apr 18
12:00 AM
Thu, Apr 18
1:00 AM
Thu, Apr 18
2:00 AM
Thu, Apr 18
3:00 AM
Thu, Apr 18
4:00 AM
Thu, Apr 18
5:00 AM
Thu, Apr 18
6:00 AM
Thu, Apr 18
7:00 AM
Thu, Apr 18
8:00 AM
Thu, Apr 18
9:00 AM
Thu, Apr 18
10:00 AM
Thu, Apr 18
11:00 AM
Thu, Apr 18
12:00 PM
Condition
Clouds

Clouds

Clouds

Clouds

Clouds

Clouds

Clouds

Clouds

Clouds

Clouds

Clouds

Clouds

Clouds

Clouds

Clouds

Clouds

Clouds

Clouds

Clouds

Clouds

Clouds

Clouds

Clouds

Clouds

Clouds

Clouds

Clouds

Clouds

Clouds

Clouds

Clouds

Clouds

Clouds

Clouds

Clouds

Clouds

Clouds

Clouds

Clouds

Clouds

Clouds

Clouds

Clouds

Clouds

Clear

Clear

Clear

Clear
Temperature 79°F79°F79°F80°F80°F81°F76°F71°F68°F66°F64°F63°F63°F62°F63°F61°F63°F63°F63°F63°F64°F66°F70°F75°F76°F79°F79°F78°F77°F76°F71°F69°F67°F65°F64°F63°F62°F62°F62°F62°F61°F59°F59°F61°F67°F72°F76°F79°F
Feels Like 79°F79°F79°F80°F81°F82°F77°F71°F68°F66°F64°F63°F62°F62°F62°F61°F63°F62°F63°F63°F64°F66°F70°F75°F76°F79°F79°F78°F77°F76°F71°F68°F66°F65°F63°F62°F62°F62°F61°F61°F61°F59°F59°F61°F67°F72°F76°F79°F
Cloudiness 100%100%98%89%87%85%85%87%100%100%100%100%100%100%100%100%100%100%100%100%100%100%100%100%100%100%100%100%100%100%100%100%100%100%100%100%100%100%100%100%97%71%57%48%0%0%0%0%
Visibility 6 mi6 mi6 mi6 mi6 mi6 mi6 mi6 mi6 mi6 mi6 mi6 mi6 mi6 mi6 mi6 mi6 mi6 mi6 mi6 mi6 mi6 mi6 mi6 mi6 mi6 mi6 mi6 mi6 mi6 mi6 mi6 mi6 mi6 mi6 mi6 mi6 mi6 mi6 mi6 mi6 mi6 mi6 mi6 mi6 mi6 mi6 mi6 mi
Precipitation 0%0%0%0%0%0%0%0%0%0%0%0%0%0%0%0%0%0%0%0%0%0%0%0%0%0%0%0%0%0%0%0%0%0%0%0%0%0%0%0%0%0%0%0%0%0%0%0%
Humidity 58%60%57%53%49%50%62%69%67%68%71%73%75%78%77%80%77%79%77%80%80%78%70%59%56%49%45%50%53%53%63%64%60%62%69%75%80%81%84%85%88%94%95%89%76%68%59%51%
Dew Point 63°F64°F63°F61°F60°F60°F62°F60°F57°F55°F54°F54°F55°F55°F55°F55°F55°F56°F56°F57°F58°F59°F60°F59°F59°F58°F56°F57°F59°F58°F58°F56°F52°F52°F53°F55°F56°F56°F56°F57°F57°F57°F57°F58°F59°F60°F60°F60°F
Pressure 30.18"30.18"30.15"30.12"30.12"30.09"30.06"30.06"30.09"30.09"30.12"30.12"30.12"30.12"30.09"30.09"30.12"30.12"30.09"30.12"30.12"30.09"30.09"30.09"30.09"30.06"30.03"30"30"30"30"30.03"30.03"30.06"30.06"30.03"30.03"30.03"30.03"30.03"30"30.03"30.03"30.06"30.06"30.06"30.06"30.03"
Wind Speed 6.1 mph7.2 mph7.3 mph6.4 mph4.8 mph4 mph4.3 mph6.2 mph6.6 mph7.2 mph6.4 mph5.1 mph4.6 mph5.3 mph4.3 mph4.4 mph4.9 mph4.5 mph6.3 mph2.8 mph3.4 mph8 mph7.7 mph10.5 mph11.4 mph12.9 mph13.7 mph9.3 mph8.1 mph10.5 mph6.7 mph6.8 mph6.7 mph6.3 mph6.6 mph6.5 mph6.7 mph6.5 mph6.9 mph7.3 mph5.9 mph5.8 mph5.2 mph4.1 mph4.8 mph4.7 mph3.9 mph3.9 mph
Wind
Direction
236°
SW
202°
SSW
203°
SSW
207°
SSW
216°
SW
210°
SSW
203°
SSW
216°
SW
220°
SW
214°
SW
225°
SW
221°
SW
241°
WSW
249°
WSW
242°
WSW
239°
WSW
240°
WSW
234°
SW
181°
S
225°
SW
229°
SW
202°
SSW
214°
SW
234°
SW
234°
SW
234°
SW
236°
SW
249°
WSW
240°
WSW
232°
SW
239°
WSW
272°
W
270°
W
249°
WSW
248°
WSW
257°
WSW
254°
WSW
251°
WSW
242°
WSW
241°
WSW
249°
WSW
262°
W
278°
W
285°
WNW
284°
WNW
275°
W
254°
WSW
251°
WSW

Daily Forecast

Date High Low Precip. Humidity
Today
Apr 16

Clouds
81 °F
60 °F
0%
58%
Wednesday
Apr 17

Clouds
79 °F
61 °F
0%
56%
Thursday
Apr 18

Clear
85 °F
59 °F
0%
45%
Friday
Apr 19

Rain
82 °F
62 °F
100%
64%
Saturday
Apr 20

Rain
79 °F
62 °F
38%
52%
Sunday
Apr 21

Clouds
70 °F
56 °F
0%
48%
Monday
Apr 22

Rain
57 °F
50 °F
100%
98%
Tuesday
Apr 23

Clouds
70 °F
46 °F
0%
37%
Wednesday
Apr 24

Clear
72 °F
50 °F
0%
41%
Thursday
Apr 25

Rain
67 °F
55 °F
100%
63%
Friday
Apr 26

Rain
69 °F
53 °F
100%
62%
Saturday
Apr 27

Clear
68 °F
48 °F
0%
47%
Sunday
Apr 28

Rain
70 °F
55 °F
100%
77%
Monday
Apr 29

Clouds
72 °F
49 °F
0%
46%
Tuesday
Apr 30

Clouds
71 °F
47 °F
0%
41%
Wednesday
May 1

Rain
57 °F
53 °F
100%
99%

Temperature 8-14 Day Outlook



Precipitation 8-14 Day Outlook






About Us
Contact Us
Site Map
Search Site
Advertise With Us
   
www.MyLakeHartwell.com
THE LAKE HARTWELL WEBSITE

Copyright 2024, Lakes Online
Privacy    |    Legal